| time (UTC) | temp F | wind direction | speed MPH | gust MPH | rain 1hr in | rain 24hr in | rain mn in | humidity % | barometer mb |
| 20260906022805 | 73 | 81 | 0.0 | 5.0 | 0.00 | 0.00 | 0.00 | 41 | 1014.9 |
| 20260906022518 | 72 | 71 | 1.0 | 9.0 | 0.00 | 0.00 | 0.00 | 42 | 1014.9 |
| 20260906021744 | 73 | 74 | 1.0 | 9.0 | 0.00 | 0.00 | 0.00 | 41 | 1014.9 |
| 20260906021243 | 73 | 279 | 0.0 | 4.0 | 0.00 | 0.00 | 0.00 | 45 | 1014.9 |
| 20260906021012 | 72 | 279 | 0.0 | 4.0 | 0.00 | 0.00 | 0.00 | 45 | 1014.9 |
| 20260906020235 | 72 | 283 | 0.0 | 2.0 | 0.00 | 0.00 | 0.00 | 45 | 1014.9 |
| 20260906015736 | 72 | 283 | 0.0 | 5.0 | 0.00 | 0.00 | 0.00 | 42 | 1015.0 |
| 20260906015231 | 72 | 300 | 1.0 | 5.0 | 0.00 | 0.00 | 0.00 | 44 | 1015.0 |
| 20260906014720 | 71 | 230 | 1.0 | 6.0 | 0.00 | 0.00 | 0.00 | 42 | 1014.9 |
| 20260906014223 | 71 | 92 | 1.0 | 6.0 | 0.00 | 0.00 | 0.00 | 42 | 1015.0 |
| 20260906013706 | 71 | 91 | 1.0 | 6.0 | 0.00 | 0.00 | 0.00 | 43 | 1015.1 |
| 20260906013203 | 71 | 90 | 1.0 | 5.0 | 0.00 | 0.00 | 0.00 | 42 | 1015.0 |
| 20260906012928 | 71 | 213 | 0.0 | 4.0 | 0.00 | 0.00 | 0.00 | 44 | 1015.1 |
| 20260906012420 | 71 | 204 | 0.0 | 4.0 | 0.00 | 0.00 | 0.00 | 43 | 1015.0 |
| 20260906011857 | 71 | 130 | 0.0 | 4.0 | 0.00 | 0.00 | 0.00 | 45 | 1015.1 |
| 20260906011119 | 71 | 130 | 0.0 | 6.0 | 0.00 | 0.00 | 0.00 | 44 | 1015.0 |
| 20260906010604 | 70 | 117 | 0.0 | 6.0 | 0.00 | 0.00 | 0.00 | 44 | 1015.1 |
| 20260906010048 | 71 | 115 | 0.0 | 4.0 | 0.00 | 0.00 | 0.00 | 44 | 1015.2 |
| 20260906005543 | 71 | 109 | 0.0 | 2.0 | 0.00 | 0.00 | 0.00 | 44 | 1015.2 |
| 20260906005023 | 71 | 219 | 0.0 | 5.0 | 0.00 | 0.00 | 0.00 | 45 | 1015.2 |
| 20260906004517 | 70 | 219 | 0.0 | 5.0 | 0.00 | 0.00 | 0.00 | 45 | 1015.1 |
| 20260906004006 | 71 | 99 | 0.0 | 3.0 | 0.00 | 0.00 | 0.00 | 45 | 1015.0 |
| 20260906003730 | 70 | 98 | 0.0 | 4.0 | 0.00 | 0.00 | 0.00 | 46 | 1015.0 |
| 20260906002955 | 70 | 101 | 0.0 | 4.0 | 0.00 | 0.00 | 0.00 | 46 | 1015.1 |
| 20260906002704 | 69 | 233 | 0.0 | 4.0 | 0.00 | 0.00 | 0.00 | 45 | 1015.1 |
| 20260906001934 | 69 | 227 | 0.0 | 4.0 | 0.00 | 0.00 | 0.00 | 48 | 1015.0 |
| 20260906001428 | 70 | 266 | 0.0 | 5.0 | 0.00 | 0.00 | 0.00 | 48 | 1015.0 |
| 20260906000922 | 69 | 263 | 1.0 | 6.0 | 0.00 | 0.00 | 0.00 | 47 | 1015.0 |
| 20260906000412 | 69 | 128 | 0.0 | 6.0 | 0.00 | 0.00 | 0.00 | 45 | 1014.9 |
| 20260905235903 | 69 | 169 | 0.0 | 0.0 | 0.00 | 0.00 | 0.00 | 46 | 1014.8 |
| 20260905235357 | 69 | 169 | 0.0 | 0.0 | 0.00 | 0.00 | 0.00 | 45 | 1014.7 |
| 20260905234847 | 69 | 169 | 0.0 | 4.0 | 0.00 | 0.00 | 0.00 | 45 | 1014.7 |
| 20260905234337 | 69 | 169 | 0.0 | 4.0 | 0.00 | 0.00 | 0.00 | 46 | 1014.6 |
| 20260905234052 | 68 | 169 | 0.0 | 4.0 | 0.00 | 0.00 | 0.00 | 47 | 1014.7 |
| 20260905233324 | 68 | 169 | 0.0 | 1.0 | 0.00 | 0.00 | 0.00 | 48 | 1014.7 |
| 20260905233034 | 68 | 169 | 0.0 | 2.0 | 0.00 | 0.00 | 0.00 | 46 | 1014.7 |
| 20260905232306 | 68 | 173 | 0.0 | 3.0 | 0.00 | 0.00 | 0.00 | 47 | 1014.7 |
| 20260905231754 | 67 | 173 | 0.0 | 3.0 | 0.00 | 0.00 | 0.00 | 49 | 1014.5 |
| 20260905231244 | 67 | 175 | 0.0 | 2.0 | 0.00 | 0.00 | 0.00 | 48 | 1014.6 |
| 20260905230735 | 67 | 175 | 0.0 | 2.0 | 0.00 | 0.00 | 0.00 | 50 | 1014.6 |
| 20260905230224 | 67 | 174 | 0.0 | 2.0 | 0.00 | 0.00 | 0.00 | 48 | 1014.5 |
| 20260905225718 | 67 | 174 | 0.0 | 2.0 | 0.00 | 0.00 | 0.00 | 48 | 1014.5 |
| 20260905225207 | 67 | 190 | 0.0 | 1.0 | 0.00 | 0.00 | 0.00 | 48 | 1014.3 |
| 20260905224658 | 66 | 190 | 0.0 | 2.0 | 0.00 | 0.00 | 0.00 | 52 | 1014.3 |
| 20260905224152 | 66 | 240 | 0.0 | 2.0 | 0.00 | 0.00 | 0.00 | 48 | 1014.3 |
| 20260905223646 | 65 | 246 | 0.0 | 2.0 | 0.00 | 0.00 | 0.00 | 52 | 1014.3 |
| 20260905223136 | 65 | 237 | 1.0 | 5.0 | 0.00 | 0.00 | 0.00 | 50 | 1014.2 |
| 20260905222635 | 65 | 238 | 0.0 | 5.0 | 0.00 | 0.00 | 0.00 | 50 | 1014.2 |
| 20260905222132 | 65 | 285 | 0.0 | 1.0 | 0.00 | 0.00 | 0.00 | 51 | 1014.1 |
| 20260905221617 | 64 | 285 | 0.0 | 2.0 | 0.00 | 0.00 | 0.00 | 51 | 1014.2 |
| 20260905221105 | 64 | 285 | 0.0 | 4.0 | 0.00 | 0.00 | 0.00 | 52 | 1014.2 |
| 20260905220609 | 64 | 332 | 0.0 | 4.0 | 0.00 | 0.00 | 0.00 | 52 | 1014.2 |
| 20260905220107 | 63 | 345 | 0.0 | 4.0 | 0.00 | 0.00 | 0.00 | 53 | 1014.0 |
| 20260905215601 | 63 | 345 | 0.0 | 4.0 | 0.00 | 0.00 | 0.00 | 53 | 1013.9 |
| 20260905215050 | 63 | 248 | 0.0 | 6.0 | 0.00 | 0.00 | 0.00 | 53 | 1013.7 |
| 20260905214538 | 63 | 248 | 0.0 | 6.0 | 0.00 | 0.00 | 0.00 | 53 | 1013.6 |
| 20260905214033 | 62 | 276 | 0.0 | 4.0 | 0.00 | 0.00 | 0.00 | 54 | 1013.3 |
| 20260905213758 | 62 | 337 | 0.0 | 0.0 | 0.00 | 0.00 | 0.00 | 54 | 1013.3 |
| 20260905213005 | 62 | 337 | 0.0 | 1.0 | 0.00 | 0.00 | 0.00 | 53 | 1013.1 |
| 20260905212505 | 62 | 337 | 0.0 | 2.0 | 0.00 | 0.00 | 0.00 | 53 | 1013.0 |
| 20260905212006 | 62 | 337 | 0.0 | 2.0 | 0.00 | 0.00 | 0.00 | 54 | 1012.7 |
| 20260905211456 | 61 | 355 | 0.0 | 0.0 | 0.00 | 0.00 | 0.00 | 54 | 1012.8 |
| 20260905210951 | 61 | 355 | 0.0 | 2.0 | 0.00 | 0.00 | 0.00 | 54 | 1012.8 |
| 20260905210411 | 61 | 355 | 0.0 | 2.0 | 0.00 | 0.00 | 0.00 | 56 | 1012.8 |
| 20260905205901 | 60 | 355 | 0.0 | 2.0 | 0.00 | 0.00 | 0.00 | 55 | 1012.5 |
| 20260905205402 | 60 | 355 | 0.0 | 0.0 | 0.00 | 0.00 | 0.00 | 56 | 1012.6 |
| 20260905204900 | 59 | 355 | 0.0 | 0.0 | 0.00 | 0.00 | 0.00 | 57 | 1012.6 |
| 20260905204358 | 59 | 232 | 0.0 | 0.0 | 0.00 | 0.00 | 0.00 | 57 | 1012.3 |
| 20260905203847 | 58 | 232 | 0.0 | 0.0 | 0.00 | 0.00 | 0.00 | 58 | 1012.2 |
| 20260905203612 | 58 | 232 | 0.0 | 2.0 | 0.00 | 0.00 | 0.00 | 59 | 1012.0 |
| 20260905202834 | 57 | 231 | 0.0 | 2.0 | 0.00 | 0.00 | 0.00 | 59 | 1012.1 |
| 20260905202329 | 56 | 236 | 0.0 | 0.0 | 0.00 | 0.00 | 0.00 | 61 | 1012.2 |
| 20260905201824 | 56 | 236 | 0.0 | 3.0 | 0.00 | 0.00 | 0.00 | 61 | 1012.0 |
| 20260905201312 | 56 | 236 | 0.0 | 3.0 | 0.00 | 0.00 | 0.00 | 62 | 1011.7 |
| 20260905200802 | 55 | 236 | 0.0 | 0.0 | 0.00 | 0.00 | 0.00 | 62 | 1011.8 |
| 20260905200254 | 56 | 236 | 0.0 | 0.0 | 0.00 | 0.00 | 0.00 | 62 | 1011.5 |
| 20260905200016 | 56 | 236 | 0.0 | 0.0 | 0.00 | 0.00 | 0.00 | 62 | 1011.4 |
| 20260905195218 | 55 | 236 | 0.0 | 0.0 | 0.00 | 0.00 | 0.00 | 61 | 1011.4 |
| 20260905194707 | 55 | 236 | 0.0 | 0.0 | 0.00 | 0.00 | 0.00 | 62 | 1011.5 |
| 20260905194428 | 55 | 236 | 0.0 | 0.0 | 0.00 | 0.00 | 0.00 | 62 | 1011.7 |
| 20260905193656 | 55 | 236 | 0.0 | 0.0 | 0.00 | 0.00 | 0.00 | 62 | 1011.5 |
| 20260905193350 | 55 | 236 | 0.0 | 0.0 | 0.00 | 0.00 | 0.00 | 63 | 1011.4 |
| 20260905192619 | 56 | 236 | 0.0 | 0.0 | 0.00 | 0.00 | 0.00 | 60 | 1011.0 |
| 20260905192111 | 56 | 236 | 0.0 | 0.0 | 0.00 | 0.00 | 0.00 | 61 | 1011.2 |
| 20260905191605 | 56 | 236 | 0.0 | 0.0 | 0.00 | 0.00 | 0.00 | 60 | 1011.0 |
| 20260905191328 | 56 | 236 | 0.0 | 0.0 | 0.00 | 0.00 | 0.00 | 60 | 1011.1 |
| 20260905190606 | 56 | 236 | 0.0 | 0.0 | 0.00 | 0.00 | 0.00 | 59 | 1011.0 |
| 20260905190104 | 57 | 236 | 0.0 | 0.0 | 0.00 | 0.00 | 0.00 | 58 | 1011.0 |
| 20260905185602 | 57 | 236 | 0.0 | 0.0 | 0.00 | 0.00 | 0.00 | 57 | 1010.5 |
| 20260905185054 | 58 | 236 | 0.0 | 0.0 | 0.00 | 0.00 | 0.00 | 56 | 1010.1 |
| 20260905184551 | 58 | 236 | 0.0 | 0.0 | 0.00 | 0.00 | 0.00 | 55 | 1009.9 |
| 20260905184048 | 59 | 236 | 0.0 | 0.0 | 0.00 | 0.00 | 0.00 | 54 | 1009.8 |
| 20260905183536 | 60 | 236 | 0.0 | 0.0 | 0.00 | 0.00 | 0.00 | 52 | 1009.7 |
| 20260905183019 | 60 | 236 | 0.0 | 4.0 | 0.00 | 0.00 | 0.00 | 50 | 1009.7 |
| 20260905182730 | 61 | 236 | 0.0 | 4.0 | 0.00 | 0.00 | 0.00 | 50 | 1009.4 |
| 20260905182000 | 61 | 236 | 0.0 | 4.0 | 0.00 | 0.00 | 0.00 | 49 | 1009.5 |
| 20260905181440 | 61 | 234 | 0.0 | 7.0 | 0.00 | 0.00 | 0.00 | 49 | 1009.4 |
| 20260905180928 | 61 | 315 | 0.0 | 7.0 | 0.00 | 0.00 | 0.00 | 49 | 1009.2 |
| 20260905180430 | 61 | 231 | 0.0 | 3.0 | 0.00 | 0.00 | 0.00 | 49 | 1009.3 |
| 20260905175922 | 61 | 231 | 0.0 | 2.0 | 0.00 | 0.00 | 0.00 | 50 | 1009.1 |
| 20260905175409 | 61 | 231 | 0.0 | 2.0 | 0.00 | 0.00 | 0.00 | 49 | 1008.9 |
| 20260905174902 | 62 | 231 | 0.0 | 2.0 | 0.00 | 0.00 | 0.00 | 51 | 1009.0 |
| 20260905174359 | 62 | 231 | 0.0 | 2.0 | 0.00 | 0.00 | 0.00 | 52 | 1009.2 |
| 20260905173902 | 62 | 231 | 0.0 | 0.0 | 0.00 | 0.00 | 0.00 | 53 | 1009.3 |
| 20260905173354 | 62 | 231 | 0.0 | 0.0 | 0.00 | 0.00 | 0.00 | 53 | 1009.0 |
| 20260905172817 | 62 | 231 | 0.0 | 0.0 | 0.00 | 0.00 | 0.00 | 52 | 1008.7 |
| 20260905172308 | 62 | 231 | 0.0 | 0.0 | 0.00 | 0.00 | 0.00 | 51 | 1008.8 |
| 20260905172249 | 62 | 231 | 0.0 | 2.0 | 0.00 | 0.00 | 0.00 | 52 | 1008.5 |
| 20260905171301 | 63 | 231 | 0.0 | 2.0 | 0.00 | 0.00 | 0.00 | 52 | 1008.5 |
| 20260905171026 | 63 | 229 | 0.0 | 2.0 | 0.00 | 0.00 | 0.00 | 52 | 1008.8 |
| 20260905170251 | 63 | 223 | 0.0 | 0.0 | 0.00 | 0.00 | 0.00 | 52 | 1008.9 |
| 20260905165749 | 63 | 223 | 0.0 | 0.0 | 0.00 | 0.00 | 0.00 | 52 | 1009.0 |
| 20260905165228 | 63 | 223 | 0.0 | 0.0 | 0.00 | 0.00 | 0.00 | 52 | 1009.0 |
| 20260905164717 | 63 | 223 | 0.0 | 0.0 | 0.00 | 0.00 | 0.00 | 52 | 1009.1 |
| 20260905164159 | 64 | 223 | 0.0 | 0.0 | 0.00 | 0.00 | 0.00 | 51 | 1009.1 |
| 20260905163700 | 64 | 223 | 0.0 | 0.0 | 0.00 | 0.00 | 0.00 | 51 | 1009.0 |
| 20260905163159 | 64 | 223 | 0.0 | 0.0 | 0.00 | 0.00 | 0.00 | 51 | 1009.0 |
| 20260905162641 | 64 | 223 | 0.0 | 0.0 | 0.00 | 0.00 | 0.00 | 50 | 1009.1 |
| 20260905162127 | 65 | 223 | 0.0 | 0.0 | 0.00 | 0.00 | 0.00 | 50 | 1009.1 |
| 20260905161627 | 65 | 223 | 0.0 | 2.0 | 0.00 | 0.00 | 0.00 | 49 | 1009.0 |
| 20260905161107 | 65 | 223 | 0.0 | 6.0 | 0.00 | 0.00 | 0.00 | 48 | 1009.1 |
| 20260905160558 | 66 | 223 | 0.0 | 6.0 | 0.00 | 0.00 | 0.00 | 48 | 1009.1 |
| 20260905160053 | 66 | 202 | 0.0 | 6.0 | 0.00 | 0.00 | 0.00 | 48 | 1009.0 |
| 20260905155051 | 66 | 240 | 1.0 | 7.0 | 0.00 | 0.00 | 0.00 | 50 | 1009.2 |
| 20260905154549 | 66 | 84 | 0.0 | 7.0 | 0.00 | 0.00 | 0.00 | 54 | 1009.2 |
| 20260905154258 | 67 | 236 | 0.0 | 6.0 | 0.00 | 0.00 | 0.00 | 57 | 1009.1 |
| 20260905153535 | 67 | 239 | 0.0 | 2.0 | 0.00 | 0.00 | 0.00 | 58 | 1008.9 |
| 20260905153019 | 67 | 239 | 0.0 | 7.0 | 0.00 | 0.00 | 0.00 | 58 | 1008.9 |
| 20260905152519 | 68 | 244 | 0.0 | 7.0 | 0.00 | 0.00 | 0.00 | 57 | 1008.6 |
| 20260905152011 | 68 | 338 | 0.0 | 0.0 | 0.00 | 0.00 | 0.00 | 56 | 1008.6 |
| 20260905151505 | 68 | 338 | 0.0 | 0.0 | 0.00 | 0.00 | 0.00 | 56 | 1008.4 |
| 20260905151223 | 68 | 338 | 0.0 | 1.0 | 0.00 | 0.00 | 0.00 | 57 | 1008.2 |
| 20260905150443 | 68 | 338 | 0.0 | 2.0 | 0.00 | 0.00 | 0.00 | 56 | 1008.1 |
| 20260905145908 | 68 | 338 | 0.0 | 4.0 | 0.00 | 0.00 | 0.00 | 56 | 1008.2 |
| 20260905145405 | 68 | 338 | 0.0 | 4.0 | 0.00 | 0.00 | 0.00 | 57 | 1008.1 |
| 20260905144902 | 68 | 341 | 0.0 | 4.0 | 0.00 | 0.00 | 0.00 | 58 | 1007.8 |
| 20260905144402 | 67 | 341 | 0.0 | 4.0 | 0.00 | 0.00 | 0.00 | 60 | 1007.7 |
| 20260905143852 | 67 | 313 | 0.0 | 4.0 | 0.00 | 0.00 | 0.00 | 61 | 1007.6 |
| 20260905143351 | 65 | 17 | 0.0 | 1.0 | 0.00 | 0.00 | 0.00 | 66 | 1007.6 |
| 20260905142845 | 65 | 17 | 0.0 | 2.0 | 0.00 | 0.00 | 0.00 | 68 | 1007.6 |
| 20260905142309 | 65 | 17 | 0.0 | 2.0 | 0.00 | 0.00 | 0.00 | 69 | 1007.6 |
| 20260905141804 | 65 | 17 | 0.0 | 0.0 | 0.00 | 0.00 | 0.00 | 68 | 1007.7 |
| 20260905141250 | 65 | 17 | 0.0 | 0.0 | 0.00 | 0.00 | 0.00 | 67 | 1007.5 |
| 20260905140740 | 65 | 17 | 0.0 | 0.0 | 0.00 | 0.00 | 0.00 | 68 | 1007.5 |
| 20260905140229 | 65 | 17 | 0.0 | 0.0 | 0.00 | 0.00 | 0.00 | 67 | 1007.4 |
| 20260905135927 | 66 | 17 | 0.0 | 0.0 | 0.00 | 0.00 | 0.00 | 66 | 1007.6 |
| 20260905135433 | 66 | 17 | 0.0 | 0.0 | 0.00 | 0.00 | 0.00 | 65 | 1007.5 |
| 20260905134704 | 67 | 17 | 0.0 | 0.0 | 0.00 | 0.00 | 0.00 | 65 | 1007.2 |
| 20260905134144 | 67 | 17 | 0.0 | 0.0 | 0.00 | 0.00 | 0.00 | 65 | 1007.1 |
| 20260905133613 | 67 | 17 | 0.0 | 0.0 | 0.00 | 0.00 | 0.00 | 65 | 1007.2 |
| 20260905133109 | 67 | 17 | 0.0 | 0.0 | 0.00 | 0.00 | 0.00 | 64 | 1007.2 |
| 20260905132604 | 68 | 17 | 0.0 | 0.0 | 0.00 | 0.00 | 0.00 | 63 | 1007.1 |
| 20260905132042 | 68 | 17 | 0.0 | 0.0 | 0.00 | 0.00 | 0.00 | 62 | 1007.1 |
| 20260905131534 | 68 | 17 | 0.0 | 0.0 | 0.00 | 0.00 | 0.00 | 63 | 1007.0 |
| 20260905131018 | 68 | 17 | 0.0 | 0.0 | 0.00 | 0.00 | 0.00 | 63 | 1007.0 |
| 20260905130506 | 68 | 17 | 0.0 | 0.0 | 0.00 | 0.00 | 0.00 | 63 | 1007.0 |
| 20260905130455 | 68 | 17 | 0.0 | 0.0 | 0.00 | 0.00 | 0.00 | 63 | 1007.0 |
| 20260905125457 | 68 | 19 | 0.0 | 0.0 | 0.00 | 0.00 | 0.00 | 64 | 1006.8 |
| 20260905124928 | 68 | 19 | 0.0 | 4.0 | 0.00 | 0.00 | 0.00 | 64 | 1006.7 |
| 20260905124621 | 68 | 19 | 0.0 | 4.0 | 0.00 | 0.00 | 0.00 | 63 | 1006.7 |
| 20260905123857 | 68 | 21 | 0.0 | 7.0 | 0.00 | 0.00 | 0.00 | 63 | 1006.7 |
| 20260905123356 | 68 | 21 | 0.0 | 7.0 | 0.00 | 0.00 | 0.00 | 64 | 1006.6 |
| 20260905122857 | 68 | 311 | 0.0 | 2.0 | 0.00 | 0.00 | 0.00 | 66 | 1006.6 |
| 20260905122347 | 67 | 311 | 0.0 | 2.0 | 0.00 | 0.00 | 0.00 | 66 | 1006.6 |
| 20260905121824 | 67 | 311 | 0.0 | 2.0 | 0.00 | 0.00 | 0.00 | 66 | 1006.7 |
| 20260905121309 | 67 | 315 | 0.0 | 0.0 | 0.00 | 0.00 | 0.00 | 67 | 1006.7 |
| 20260905120809 | 67 | 315 | 0.0 | 0.0 | 0.00 | 0.00 | 0.00 | 67 | 1006.8 |
| 20260905120309 | 67 | 315 | 0.0 | 0.0 | 0.00 | 0.00 | 0.00 | 67 | 1006.7 |
| 20260905115802 | 67 | 315 | 0.0 | 0.0 | 0.00 | 0.00 | 0.00 | 67 | 1006.7 |
| 20260905115233 | 67 | 315 | 0.0 | 0.0 | 0.00 | 0.00 | 0.00 | 67 | 1006.7 |
| 20260905114717 | 68 | 315 | 0.0 | 0.0 | 0.00 | 0.00 | 0.00 | 66 | 1006.8 |
| 20260905114419 | 68 | 315 | 0.0 | 0.0 | 0.00 | 0.00 | 0.00 | 66 | 1006.9 |
| 20260905113652 | 68 | 315 | 0.0 | 0.0 | 0.00 | 0.00 | 0.00 | 66 | 1006.9 |
| 20260905113150 | 68 | 315 | 0.0 | 0.0 | 0.00 | 0.00 | 0.00 | 67 | 1006.9 |
| 20260905112842 | 68 | 315 | 0.0 | 0.0 | 0.00 | 0.00 | 0.00 | 66 | 1006.9 |
| 20260905112104 | 69 | 315 | 0.0 | 0.0 | 0.00 | 0.00 | 0.00 | 66 | 1006.9 |
| 20260905111554 | 69 | 315 | 0.0 | 0.0 | 0.00 | 0.00 | 0.00 | 66 | 1006.9 |
| 20260905111013 | 69 | 315 | 0.0 | 2.0 | 0.00 | 0.00 | 0.00 | 66 | 1006.9 |
| 20260905110737 | 69 | 315 | 0.0 | 2.0 | 0.00 | 0.00 | 0.00 | 66 | 1006.8 |
| 20260905110003 | 69 | 315 | 0.0 | 2.0 | 0.00 | 0.00 | 0.00 | 66 | 1006.8 |
| 20260905105458 | 69 | 311 | 0.0 | 1.0 | 0.00 | 0.00 | 0.00 | 65 | 1006.8 |
| 20260905104916 | 69 | 311 | 0.0 | 2.0 | 0.00 | 0.00 | 0.00 | 66 | 1006.7 |
| 20260905104407 | 69 | 307 | 0.0 | 1.0 | 0.00 | 0.00 | 0.00 | 66 | 1006.7 |
| 20260905103900 | 69 | 294 | 0.0 | 0.0 | 0.00 | 0.00 | 0.00 | 66 | 1006.7 |
| 20260905103356 | 69 | 294 | 0.0 | 0.0 | 0.00 | 0.00 | 0.00 | 66 | 1006.7 |
| 20260905102855 | 69 | 294 | 0.0 | 0.0 | 0.00 | 0.00 | 0.00 | 66 | 1006.7 |
| 20260905102617 | 70 | 294 | 0.0 | 2.0 | 0.00 | 0.00 | 0.00 | 65 | 1006.7 |
| 20260905101838 | 70 | 294 | 0.0 | 3.0 | 0.00 | 0.00 | 0.00 | 65 | 1006.8 |
| 20260905101334 | 70 | 294 | 0.0 | 3.0 | 0.00 | 0.00 | 0.00 | 65 | 1006.7 |
| 20260905100808 | 70 | 289 | 0.0 | 2.0 | 0.00 | 0.00 | 0.00 | 64 | 1006.7 |
| 20260905100307 | 70 | 289 | 0.0 | 2.0 | 0.00 | 0.00 | 0.00 | 64 | 1006.6 |
| 20260905095757 | 71 | 287 | 1.0 | 7.0 | 0.00 | 0.00 | 0.00 | 64 | 1006.6 |
| 20260905095246 | 71 | 288 | 1.0 | 7.0 | 0.00 | 0.00 | 0.00 | 63 | 1006.6 |
| 20260905094737 | 71 | 297 | 1.0 | 6.0 | 0.00 | 0.00 | 0.00 | 63 | 1006.6 |
| 20260905094225 | 71 | 313 | 1.0 | 6.0 | 0.00 | 0.00 | 0.00 | 62 | 1006.6 |
| 20260905093937 | 71 | 341 | 1.0 | 5.0 | 0.00 | 0.00 | 0.00 | 61 | 1006.5 |
| 20260905093207 | 71 | 0 | 1.0 | 5.0 | 0.00 | 0.00 | 0.00 | 61 | 1006.5 |
| 20260905092655 | 72 | 302 | 1.0 | 7.0 | 0.00 | 0.00 | 0.00 | 60 | 1006.5 |
| 20260905092417 | 72 | 344 | 1.0 | 7.0 | 0.00 | 0.00 | 0.00 | 59 | 1006.5 |
| 20260905091649 | 72 | 322 | 0.0 | 5.0 | 0.00 | 0.00 | 0.00 | 58 | 1006.5 |
| 20260905091130 | 72 | 305 | 1.0 | 4.0 | 0.00 | 0.00 | 0.00 | 58 | 1006.6 |
| 20260905090842 | 72 | 307 | 1.0 | 3.0 | 0.00 | 0.00 | 0.00 | 58 | 1006.4 |
| 20260905090111 | 72 | 303 | 1.0 | 5.0 | 0.00 | 0.00 | 0.00 | 57 | 1006.4 |
| 20260905085608 | 72 | 316 | 1.0 | 5.0 | 0.00 | 0.00 | 0.00 | 57 | 1006.5 |
| 20260905085058 | 72 | 294 | 1.0 | 5.0 | 0.00 | 0.00 | 0.00 | 56 | 1006.3 |
| 20260905084552 | 72 | 302 | 2.0 | 8.0 | 0.00 | 0.00 | 0.00 | 57 | 1006.2 |
| 20260905084042 | 72 | 292 | 2.0 | 8.0 | 0.00 | 0.00 | 0.00 | 57 | 1006.2 |
| 20260905083543 | 72 | 340 | 1.0 | 6.0 | 0.00 | 0.00 | 0.00 | 57 | 1006.3 |
| 20260905083030 | 72 | 355 | 2.0 | 7.0 | 0.00 | 0.00 | 0.00 | 57 | 1006.3 |
| 20260905082532 | 72 | 333 | 2.0 | 7.0 | 0.00 | 0.00 | 0.00 | 57 | 1006.4 |
| 20260905082010 | 72 | 355 | 1.0 | 6.0 | 0.00 | 0.00 | 0.00 | 57 | 1006.7 |
| 20260905081504 | 72 | 355 | 1.0 | 5.0 | 0.00 | 0.00 | 0.00 | 59 | 1006.9 |
| 20260905080958 | 71 | 0 | 1.0 | 5.0 | 0.00 | 0.00 | 0.00 | 60 | 1007.1 |
| 20260905080448 | 71 | 327 | 1.0 | 5.0 | 0.00 | 0.00 | 0.00 | 61 | 1007.3 |
| 20260905075938 | 71 | 342 | 1.0 | 4.0 | 0.00 | 0.00 | 0.00 | 62 | 1007.5 |
| 20260905075659 | 71 | 343 | 1.0 | 4.0 | 0.00 | 0.00 | 0.00 | 63 | 1007.7 |
| 20260905075143 | 71 | 325 | 1.0 | 4.0 | 0.00 | 0.00 | 0.00 | 63 | 1008.1 |
| 20260905074409 | 71 | 319 | 0.0 | 4.0 | 0.00 | 0.00 | 0.00 | 63 | 1008.2 |
| 20260905073908 | 71 | 316 | 0.0 | 4.0 | 0.00 | 0.00 | 0.00 | 63 | 1008.3 |
| 20260905073405 | 71 | 311 | 0.0 | 4.0 | 0.00 | 0.00 | 0.00 | 63 | 1008.3 |
| 20260905072905 | 71 | 308 | 1.0 | 6.0 | 0.00 | 0.00 | 0.00 | 63 | 1008.3 |
| 20260905072406 | 71 | 309 | 1.0 | 6.0 | 0.00 | 0.00 | 0.00 | 63 | 1008.2 |
| 20260905071902 | 71 | 248 | 0.0 | 5.0 | 0.00 | 0.00 | 0.00 | 63 | 1008.4 |
| 20260905071609 | 71 | 355 | 0.0 | 5.0 | 0.00 | 0.00 | 0.00 | 63 | 1008.4 |
| 20260905070835 | 71 | 311 | 0.0 | 5.0 | 0.00 | 0.00 | 0.00 | 63 | 1008.6 |
| 20260905070338 | 71 | 307 | 1.0 | 6.0 | 0.00 | 0.00 | 0.00 | 63 | 1008.4 |
| 20260905065838 | 71 | 315 | 1.0 | 6.0 | 0.00 | 0.00 | 0.00 | 64 | 1007.9 |
| 20260905065334 | 71 | 11 | 0.0 | 3.0 | 0.00 | 0.00 | 0.00 | 65 | 1007.7 |
| 20260905064833 | 71 | 17 | 0.0 | 4.0 | 0.00 | 0.00 | 0.00 | 65 | 1007.5 |
| 20260905064334 | 72 | 22 | 1.0 | 4.0 | 0.00 | 0.00 | 0.00 | 65 | 1007.6 |
| 20260905063829 | 73 | 350 | 1.0 | 4.0 | 0.00 | 0.00 | 0.00 | 63 | 1007.6 |
| 20260905063324 | 74 | 290 | 1.0 | 9.0 | 0.00 | 0.00 | 0.00 | 59 | 1007.3 |
| 20260905062821 | 75 | 280 | 2.0 | 9.0 | 0.00 | 0.00 | 0.00 | 56 | 1007.2 |
| 20260905062310 | 77 | 59 | 2.0 | 15.0 | 0.00 | 0.00 | 0.00 | 52 | 1007.2 |
| 20260905061810 | 82 | 224 | 3.0 | 15.0 | 0.00 | 0.00 | 0.00 | 46 | 1007.2 |
| 20260905061529 | 85 | 310 | 2.0 | 12.0 | 0.00 | 0.00 | 0.00 | 37 | 1007.1 |
| 20260905060810 | 86 | 231 | 2.0 | 6.0 | 0.00 | 0.00 | 0.00 | 31 | 1005.7 |
| 20260905060300 | 86 | 228 | 2.0 | 7.0 | 0.00 | 0.00 | 0.00 | 30 | 1005.4 |
| 20260905055749 | 86 | 250 | 2.0 | 7.0 | 0.00 | 0.00 | 0.00 | 30 | 1005.3 |
| 20260905055240 | 87 | 236 | 1.0 | 7.0 | 0.00 | 0.00 | 0.00 | 30 | 1005.1 |
| 20260905054729 | 87 | 264 | 1.0 | 7.0 | 0.00 | 0.00 | 0.00 | 29 | 1004.9 |
| 20260905054442 | 86 | 0 | 1.0 | 7.0 | 0.00 | 0.00 | 0.00 | 29 | 1004.6 |
| 20260905053708 | 87 | 202 | 2.0 | 7.0 | 0.00 | 0.00 | 0.00 | 29 | 1004.3 |
| 20260905053207 | 87 | 225 | 3.0 | 7.0 | 0.00 | 0.00 | 0.00 | 29 | 1004.3 |
| 20260905052657 | 87 | 223 | 3.0 | 10.0 | 0.00 | 0.00 | 0.00 | 28 | 1004.3 |
| 20260905052148 | 88 | 40 | 4.0 | 10.0 | 0.00 | 0.00 | 0.00 | 28 | 1004.1 |
| 20260905051637 | 88 | 323 | 4.0 | 11.0 | 0.00 | 0.00 | 0.00 | 27 | 1004.1 |
| 20260905051132 | 89 | 267 | 3.0 | 11.0 | 0.00 | 0.00 | 0.00 | 27 | 1004.1 |
| 20260905050622 | 89 | 219 | 3.0 | 10.0 | 0.00 | 0.00 | 0.00 | 27 | 1004.1 |
| 20260905050111 | 88 | 266 | 2.0 | 10.0 | 0.00 | 0.00 | 0.00 | 28 | 1004.1 |
| 20260905045602 | 88 | 307 | 2.0 | 8.0 | 0.00 | 0.00 | 0.00 | 30 | 1004.2 |
| 20260905045319 | 89 | 281 | 2.0 | 10.0 | 0.00 | 0.00 | 0.00 | 30 | 1004.1 |
| 20260905044559 | 89 | 309 | 2.0 | 10.0 | 0.00 | 0.00 | 0.00 | 30 | 1004.1 |
| 20260905044042 | 89 | 290 | 2.0 | 8.0 | 0.00 | 0.00 | 0.00 | 30 | 1004.1 |
| 20260905043529 | 90 | 259 | 3.0 | 9.0 | 0.00 | 0.00 | 0.00 | 30 | 1004.2 |
| 20260905043019 | 90 | 244 | 2.0 | 9.0 | 0.00 | 0.00 | 0.00 | 29 | 1004.0 |
| 20260905042728 | 90 | 42 | 2.0 | 8.0 | 0.00 | 0.00 | 0.00 | 30 | 1004.2 |
| 20260905042007 | 90 | 92 | 2.0 | 12.0 | 0.00 | 0.00 | 0.00 | 28 | 1004.2 |
| 20260905041457 | 90 | 291 | 2.0 | 12.0 | 0.00 | 0.00 | 0.00 | 29 | 1004.4 |
| 20260905040951 | 90 | 318 | 2.0 | 7.0 | 0.00 | 0.00 | 0.00 | 30 | 1004.3 |
| 20260905040442 | 89 | 266 | 3.0 | 9.0 | 0.00 | 0.00 | 0.00 | 31 | 1004.3 |
| 20260905035936 | 89 | 306 | 3.0 | 9.0 | 0.00 | 0.00 | 0.00 | 30 | 1004.5 |
| 20260905035429 | 89 | 273 | 3.0 | 7.0 | 0.00 | 0.00 | 0.00 | 30 | 1004.5 |
| 20260905034919 | 89 | 268 | 3.0 | 9.0 | 0.00 | 0.00 | 0.00 | 31 | 1004.7 |
| 20260905034632 | 89 | 310 | 3.0 | 9.0 | 0.00 | 0.00 | 0.00 | 32 | 1004.7 |
| 20260905033903 | 88 | 304 | 3.0 | 8.0 | 0.00 | 0.00 | 0.00 | 32 | 1005.0 |
| 20260905033354 | 88 | 269 | 3.0 | 11.0 | 0.00 | 0.00 | 0.00 | 33 | 1004.9 |
| 20260905032847 | 88 | 329 | 2.0 | 11.0 | 0.00 | 0.00 | 0.00 | 32 | 1005.0 |
| 20260905032602 | 87 | 45 | 2.0 | 8.0 | 0.00 | 0.00 | 0.00 | 34 | 1005.2 |
| 20260905031832 | 87 | 258 | 2.0 | 9.0 | 0.00 | 0.00 | 0.00 | 34 | 1005.4 |
| 20260905031320 | 87 | 324 | 2.0 | 9.0 | 0.00 | 0.00 | 0.00 | 35 | 1005.6 |
| 20260905030817 | 86 | 348 | 2.0 | 6.0 | 0.00 | 0.00 | 0.00 | 34 | 1005.7 |
| 20260905030309 | 86 | 42 | 3.0 | 9.0 | 0.00 | 0.00 | 0.00 | 35 | 1006.0 |
| 20260905030028 | 86 | 336 | 2.0 | 9.0 | 0.00 | 0.00 | 0.00 | 34 | 1006.2 |
| 20260905025250 | 85 | 35 | 2.0 | 6.0 | 0.00 | 0.00 | 0.00 | 35 | 1006.3 |
| 20260905024959 | 85 | 285 | 3.0 | 8.0 | 0.00 | 0.00 | 0.00 | 35 | 1006.6 |
| 20260905024450 | 85 | 325 | 3.0 | 8.0 | 0.00 | 0.00 | 0.00 | 36 | 1006.8 |
| 20260905024212 | 85 | 355 | 2.0 | 6.0 | 0.00 | 0.00 | 0.00 | 36 | 1006.9 |
| 20260905023209 | 85 | 22 | 3.0 | 12.0 | 0.00 | 0.00 | 0.00 | 37 | 1007.1 |